Погода в Шиели

Погода в Шиели : погода сейчас, прогноз погоды и архив. Всё, что Вы хотите узнать о погоде в Шиели!

Хотите узнать прогноз погоды в Шиели? Тогда Вам сюда: Погода в Шиели

Поиск расширенной информации на нашем сайте:

Другие новости

Новости СМИ2

Главная страница сайта

Новости сайта

02.10.2013

Напоминаем, что на нашем новом сайте вы можете получить высокодетализированные прогнозы погоды по пунктам России, СНГ и мира (включающие важные для авиации метеовеличины, такие как направление и скорость ветра, видимость, явления погоды, количество и форма облачности, нижняя и верхняя граница облачности), а также ознакомиться с разнообразными материалами по авиационной метеорологии и подборкой полезных ссылок на эту тему.

Сайт Метеоцентр.Азия посвящён разработке технологий оптимизации авиаметеорологического обслуживания, включая проектирование и перспективное создание нескольких автоматизированных авиаметеорологических систем:
- система выпуска высокодетальных прогностических карт явлений погоды для нижнего воздушного пространства по России и ближнему зарубежью;
- система верификации прогнозов TAF (выпускаемых синоптиками официальных АМСГ РФ и ближнего зарубежья) и AUTOTAF (выпускаемых сайтом Метеоцентр.Азия) - выявление ошибок, онлайн-сопоставление с фактической погодой METAR, автоматическое внесение коррективов в прогнозы при резком отклонении фактической погоды от прогноза, подсчёт оправдываемости прогнозов по элементам и в целом;
- система обработки, анализа и отображения авиаметеорологической информации для применения провайдерами метеорологической информации.

Рекомендуем: Ремонт электротранспорта обслуживание ж и электротранспорта.

Погода в Шиели - сегодня

Время (UTC), дата Ветер
(°,м/с) 
Видим.   Явления Облачность Т
(°С)
Тd
(°С)
f(%) Тe
(°С)
Pmin
(гПа)
dP
(гПа)
Po
(мм)
O2
(г/м3)
Тmin Tmax R s Состояние
почвы
00 22.05.17 тихо ()   10 км    ясно 
+18.7 +8.9 53 +19  1003.5  -0.7  739  277           
03 22.05.17 тихо ()   20000 м    ясно 
+25.3 +3 23 +25  1002.2  -0.2  739  272           
06 22.05.17 тихо ()   20000 м    3/0 верхняя 
[Ci sp]
+31.2 +3.2 17 +31  1001.9  739  267  +18.3         
09 22.05.17 260 (З) 20000 м    8/0 верхняя 
[Ci sp]
+34.6 +4.5 15 +35  1000.6  -1.2  738  263           
12 22.05.17 тихо ()   20000 м    8/0 верхняя 
[Ci ing]
+35.2 +5.8 16 +35  999.1  -1.4  737  262           
15 22.05.17 110 (В) 20000 м    8/0 верхняя 
[Ci ing]
+31.4 +7.8 23 +31  998.9  -0.3  737  265    +36.3       
18 22.05.17 270 (З) 7{17}  н/о  пыльный позёмок  9/0 средняя 
[Ac As]
+28.2 +10.2 33 +30  1002.2  739  268    +36.3       
21 22.05.17 280 (З) н/о    8/0 средняя 
[Ac cast]
+21.8 +10.3 48 +24  1005.9  3.3  741  275           
00 23.05.17 250 (З) 10 км    8/0 верхняя 
[Cc]
+18.2 +9 55 +19  1009.2  743  279           
03 23.05.17 270 (З) 20000 м    6/0 верхняя 
[Cc]
+19.3 +8.8 51 +20  1011.7  2.6  745  279           
06 23.05.17 250 (З) 20000 м    3/0 верхняя 
[Ci sp]
+24.1 +5.3 30 +24  1013  1.5  747  276  +17.7         
09 23.05.17 320 (СЗ) 20000 м    ясно 
+27.6 +8.6 30 +28  1012.7  -0.1  746  272           
12 23.05.17 340 (С) 20000 м    ясно 
+29.5 +8.5 27 +30  1012.2  -0.3  746  270           
15 23.05.17 360 (С) 20000 м    1/0 верхняя 
[Ci fib]
+26.4 +6.7 29 +26  1012.6  0.1  746  273    +30.3       
18 23.05.17 тихо ()   н/о    ясно 
+19.9 +11.7 59 +23  1013.7  0.8  747  278    +30.3       
21 23.05.17 тихо ()   н/о    ясно 
+18.5 +10.5 60 +20  1013.9  747  280           
00 24.05.17 тихо ()   10 км    1/0 верхняя 
[Ci fib]
+16.7 +10.5 67 +19  1013.6  -0.3  747  282           
03 24.05.17 тихо ()   20000 м    8/0 верхняя 
[Ci fib]
+23.4 +12 49 +27  1014.1  0.9  747  275           
06 24.05.17 010 (С) 20000 м    8/0 верхняя 
[Cs]
+29 +8.8 28 +29  1013.2  -0.5  747  271  +15.9         
09 24.05.17 тихо ()   20000 м    8/0 верхняя 
[Cs]
+31.1 +3.6 17 +31  1012.1  -1  746  269           
12 24.05.17 020 (С) 20000 м    3/0 верхняя 
[Ci fib]
+31.4 +3.2 17 +31  1011.2  -0.9  746  269           
15 24.05.17 010 (С) 20000 м    3/0 верхняя 
[Ci fib]
+27 +4.3 23 +27  1011.1  -0.5  745  273    +32.3       
18 24.05.17 030 (СВ) н/о    ясно 
+22.1 +5.9 35 +22  1011.9  0.6  746  277    +32.3       
21 24.05.17 тихо ()   н/о    ясно 
+19.6 +6.1 41 +20  1011.6  -0.4  745  279           
00 25.05.17 тихо ()   10 км    ясно 
+17.8 +6.5 47 +18  1011.2  -0.6  745  281           
Время (UTC), дата Ветер
(°,м/с) 
Видим.   Явления Облачность Т
(°С)
Тd
(°С)
f(%) Тe
(°С)
Pmin
(гПа)
dP
(гПа)
Po
(мм)
O2
(г/м3)
Тmin Tmax R s Состояние
почвы

Для получения пояснительной информации подведите курсор к названию столбца.

ПОГОДА в Шиели - архив

Всё, что Вы хотите узнать о погоде в Шиели - удобно и подробно!

Выберите нужную дату (начиная с 1 января 2015* года) и нажмите кнопку "Найти".
Будут отображены архивные сводки погоды по пункту Шиели, начиная с указанной даты.


Отображать данные в формате CSV (для использования в таблицах Excel)


Внимание! Наш архив погоды предназначен исключительно для личного некоммерческого использования в познавательных целях. Если Вам необходимы официальные справки о состоянии погоды (для производственных, юридических, коммерческих и т.п. целей), обращайтесь в органы Росгидромета.

*Примечание: данная дата относится к архиву по метеостанциям СССР (Россия, СНГ, Балтия).
Архив по метеостанциям Зарубежной Европы и Азии (кроме Китая) хранится 10 дней, по другим регионам земного шара (Китай, Африка, Америка, Австралия, Океания) - 1 день.

Шиели - район местоположения метеостанции


Название, широта, долгота, высота метеостанции:
Шиели (Чиили) 44.2°ш. 66.8°д. 153 м над ур. моря [Казахстан]

Дополнительная информация

В oтличие oт бoльшинства пoгoдных сайтoв мы публикуем пoдрoбную метеoинфoрмацию в детальнoм прoфессиoнальнoм фoрмате.

Характеристики температуры и влажнoсти вoздуха измеряются на высoте 2 м в тени вдали oт зданий и деревьев.
Скoрoсть ветра измеряется на высoте 10 м (на урoвне рoста челoвека скoрoсть ветра ниже в 1.5-2 раза). Если метеoстанция нахoдится в гoрoде или в лесу, тo скoрoсть ветра занижена на 2-4 м/с пo сравнению с oткрытым местoм. Скoрoсть ветра над акватoриями крупных рек и oзёр, а также на вершинах хoлмoв на 2-5 м/с выше, чем в oбычных услoвиях.
Атмoсфернoе давление в разных тoчках местнoсти мoжет значительнo oтличаться oт давления на метеoстанции, в зависимoсти oт услoвий рельефа (при пoдъёме на 10 м давление пoнижается примернo на 1 мм рт.ст.).